AO-07 1 07530U 74089B 26177.30866213 -.00000031 00000-0 98450-4 0 9990 2 07530 101.9899 190.6503 0012643 113.2400 258.3057 12.53698198361669 UO-11 1 14781U 84021B 26177.61814837 .00001135 00000-0 12100-3 0 9994 2 14781 97.8061 143.0876 0008459 143.3075 216.8724 14.90805248258536 LO-19 1 20442U 90005G 26177.32165971 .00000114 00000-0 57434-4 0 9996 2 20442 98.8847 199.3789 0011652 173.9704 186.1622 14.34125703903705 AO-27 1 22825U 93061C 26177.71928286 .00000080 00000-0 47386-4 0 9994 2 22825 98.6877 245.1292 0009493 75.2353 284.9880 14.30944565708365 FO-29 1 24278U 96046B 26177.47891755 -.00000015 00000-0 18217-4 0 9997 2 24278 98.5232 25.0778 0350900 72.3924 291.5216 13.53274769474421 GO-32 1 25397U 98043D 26177.47694676 .00000058 00000-0 45347-4 0 9992 2 25397 99.0071 170.4701 0001524 145.3708 214.7569 14.24430067452651 ISS 1 25544U 98067A 26177.47752734 .00007960 00000-0 15019-3 0 9993 2 25544 51.6324 254.1054 0004309 234.2414 125.8174 15.49438531573196 NO-44 1 26931U 01043C 26177.51858728 .00000083 00000-0 61958-4 0 9990 2 26931 67.0492 220.1368 0006039 265.1610 94.8803 14.31958870291787 SO-50 1 27607U 02058C 26177.25860940 .00000937 00000-0 12777-3 0 9990 2 27607 64.5520 100.9188 0075048 260.7782 98.4830 14.83064844265804 CO-55 1 27844U 03031E 26176.95866144 .00000278 00000-0 13913-3 0 9994 2 27844 98.6736 185.4073 0010067 153.3060 206.8639 14.24340671192925 RS-22 1 27939U 03042A 26177.65355623 .00001107 00000-0 17863-3 0 9994 2 27939 98.3473 2.2801 0010047 235.5664 197.8593 14.73483376216942 CO-65 1 32785U 08021C 26177.66180106 .00004656 00000-0 29417-3 0 9994 2 32785 97.8273 159.2777 0008803 9.9021 350.2379 15.09537507986623 CO-66 1 32791U 08021J 26177.47033514 .00018788 00000-0 59022-3 0 9996 2 32791 97.7516 175.8130 0000491 216.1627 143.9581 15.33053587988717 RS-30 1 32953U 08025A 26177.75582913 .00000045 00000-0 25141-3 0 9995 2 32953 82.5046 349.4872 0018575 291.9023 68.0082 12.43179936820883 SRMSAT 1 37841U 11058D 26177.54557073 .00000370 00000-0 56800-4 0 9990 2 37841 19.9735 2.8256 0011715 307.2404 82.9527 14.11577357759147 ZACUBE-1 1 39417U 13066B 26177.47231079 .00003406 00000-0 26520-3 0 9997 2 39417 97.8048 139.8569 0042084 216.0502 143.7882 15.01236337682120 Delfi-N3xt 1 39428U 13066N 26177.74838061 .00005087 00000-0 44373-3 0 9996 2 39428 97.8344 98.0513 0074335 173.5030 186.7172 14.95171954676052 GOMX-1 1 39430U 13066Q 26177.78699068 .00001913 00000-0 29101-3 0 9991 2 39430 97.6486 17.6438 0129859 47.0653 314.1362 14.69491428671326 LO-74 1 39440U 13066AA 26177.77591205 .00004220 00000-0 39049-3 0 9991 2 39440 97.8903 126.7948 0057450 357.3533 2.7374 14.93836496678428 AO-73 1 39444U 13066AE 26177.66821197 .00007529 00000-0 46531-3 0 9998 2 39444 97.8272 149.3122 0036613 168.7354 191.4703 15.09595526681092 DTUSAT-2 1 40030U 14033W 26176.95586415 .00007840 00000-0 42202-3 0 9995 2 40030 98.0864 175.2400 0007522 192.4469 167.6577 15.15119431654010 LILACSAT-2 1 40908U 15049K 26177.75265995 .00017374 00000-0 29262-3 0 9997 2 40908 97.4638 214.9588 0006419 202.9560 157.1406 15.51748827597239 Horyu-4 1 41340U 16012D 26177.60135035 .00981345 51298-3 11416-2 0 9991 2 41340 30.9826 9.3933 0008771 328.5167 31.4973 16.07657648572320 Lapan A3 1 41603U 16040E 26177.72033473 .00003898 00000-0 12386-3 0 9998 2 41603 97.1487 173.5528 0009663 352.5383 7.5714 15.33163675556275 CAS-2T 1 41847U 16066G 26177.72919289 .00001560 00000-0 22505-3 0 9992 2 41847 98.3821 253.3565 0342905 100.6280 263.3719 14.44723586506170 TechnoSat 1 42829U 17042E 26177.69050637 .00002979 00000-0 21320-3 0 9996 2 42829 97.4293 334.9877 0019275 64.7008 295.6214 15.05015244488131 AO-91 1 43017U 17073E 26176.60840684 .00008156 00000-0 35687-3 0 9993 2 43017 97.4699 43.6511 0148630 299.9037 58.7499 15.12826697466669 S-Net D 1 43186U 18014G 26177.69822730 .00005138 00000-0 26512-3 0 9992 2 43186 97.5361 82.4296 0007902 359.1582 0.9636 15.16756105460200 S-Net B 1 43187U 18014H 26177.70986538 .00004950 00000-0 25574-3 0 9990 2 43187 97.5363 82.4282 0008324 354.1490 5.9644 15.16726956460205 S-Net A 1 43188U 18014J 26177.69705323 .00005228 00000-0 26960-3 0 9999 2 43188 97.5374 82.6260 0008295 354.3716 5.7422 15.16764284460204 S-Net C 1 43189U 18014K 26177.71378932 .00004905 00000-0 25347-3 0 9994 2 43189 97.5389 82.7188 0009369 344.9812 15.1141 15.16718962458758 Ten-Koh 1 43677U 18084G 26177.51100830 .00001590 00000-0 12308-3 0 9991 2 43677 98.0755 10.2683 0011251 87.7097 272.5415 15.02971260417563 PO-101 1 43678U 18084H 26177.70610935 .00002698 00000-0 21902-3 0 9995 2 43678 98.1205 14.3297 0013043 140.2716 219.9465 15.00493099417641 QO-100 1 43700U 18090A 26177.74205801 .00000156 00000-0 00000 0 0 9993 2 43700 0.0090 302.7911 0002132 185.1403 79.8583 1.00270519 27776 MinXSS-2 1 43758U 18099A 26177.46983657 .00035580 00000-0 69146-3 0 9995 2 43758 97.4538 254.0285 0007470 220.1992 139.8707 15.47509639415569 AO-95 1 43770U 18099N 26177.71185888 .00011312 00000-0 43041-3 0 9990 2 43770 97.4386 237.9235 0007136 319.9595 40.1117 15.26902666414678 SNUSat 2 1 43782U 18099AA 26177.40674078 .00008914 00000-0 39328-3 0 9990 2 43782 97.4061 230.6488 0008603 259.8617 100.1648 15.21968787414439 SnugLite 1 43784U 18099AC 26177.57835782 .00011514 00000-0 43213-3 0 9999 2 43784 97.3869 231.7662 0001697 223.4061 136.7045 15.27371411414757 ITASat 1 1 43786U 18099AE 26177.70458022 .00006883 00000-0 33000-3 0 9990 2 43786 97.4027 229.0263 0011181 324.7706 35.2789 15.19167716414359 EAGLET 1 1 43790U 18099AJ 26177.57656250 .00003712 00000-0 21367-3 0 9994 2 43790 97.4229 226.9964 0009802 319.5109 40.5392 15.13003874413758 ESEO 1 43792U 18099AL 26177.55958844 .00001320 00000-0 98963-4 0 9998 2 43792 97.3975 214.5470 0010261 307.1749 52.8540 15.04276462413213 JO-97 1 43803U 18099AX 26177.68609532 .00016394 00000-0 50103-3 0 9992 2 43803 97.4134 240.5542 0005070 220.1283 139.9586 15.33941851415089 Suomi 100 1 43804U 18099AY 26177.69872333 .00012236 00000-0 44146-3 0 9996 2 43804 97.4187 238.0570 0008749 239.4504 120.5873 15.28626450414876 ISAT 1 43879U 18111D 26177.74653772 .00095453 00000-0 88997-3 0 9997 2 43879 97.5868 113.7138 0003536 166.2174 193.9183 15.67031987412664 UWE-4 1 43880U 18111E 26177.72731250 .00032472 00000-0 64980-3 0 9993 2 43880 97.5846 106.5606 0004426 294.0658 66.0127 15.46698886412255 Sparrow 1 43881U 18111F 26177.59300338 .00170388 00000-0 10183-2 0 9992 2 43881 97.6096 119.3456 0004903 132.2183 227.9499 15.77369932412852 Prox-1 1 44339U 19036A 26177.76319389 .00012721 00000-0 12316-2 0 9999 2 44339 23.9958 50.2730 0005675 145.5710 214.5158 14.90835013374907 Taurus 1 1 44530U 19059C 26177.69041816 .00006304 00000-0 10078-2 0 9999 2 44530 98.6418 343.1092 0007178 281.3237 78.7162 14.72188186360045 TO-108 1 44881U 19093C 26177.73772370 .00000520 00000-0 64691-4 0 9993 2 44881 97.7532 249.7369 0014902 58.4682 301.7987 14.86531677352833 RS-44 1 44909U 19096E 26177.69966103 .00000017 00000-0 17228-4 0 9996 2 44909 82.5225 333.3830 0218469 122.0146 240.2387 12.79749029303564 SALSAT 1 46495U 20068K 26177.49875036 .00007768 00000-0 27079-3 0 9995 2 46495 97.8850 181.1309 0007810 268.2261 91.8084 15.29924136316780 CSS (TIANHE-1) 1 48274U 21035A 26177.63772013 .00020548 00000-0 23874-3 0 9994 2 48274 41.4690 264.4733 0007980 157.4644 202.6547 15.61217048294641 CUTE 1 49263U 21088D 26177.72555697 .00258235 28663-4 60261-3 0 9994 2 49263 97.4158 277.9671 0006940 216.4815 143.5989 15.96985047264077 TeikyoSat 4 1 49396U 21102B 26177.53356686 .00001534 00000-0 99359-4 0 9994 2 49396 97.3666 206.6535 0010363 259.4130 100.5933 15.09538489254132 Z-Sat 1 49399U 21102E 26177.75429935 .00004951 00000-0 24371-3 0 9996 2 49399 97.3327 212.7866 0015655 208.3037 151.7349 15.18332824254899 KOSEN 1 1 49402U 21102H 26177.57866508 .00007679 00000-0 29201-3 0 9999 2 49402 97.3187 219.5535 0014204 167.5204 192.6389 15.26959722255459 HO-113 1 50466U 21131B 26177.77327153 .00000540 00000-0 18039-3 0 9990 2 50466 98.4983 270.1111 0005360 74.1740 286.0039 14.41366041236496 SNUGLITE 2 1 52899U 22065F 26177.66558380 .00000873 00000-0 17432-3 0 9990 2 52899 98.2211 322.4796 0007338 4.6480 355.4789 14.64363342212387 UmKA 1 (RS40S) 1 57172U 23091G 26177.69984852 .00006411 00000-0 29213-3 0 9993 2 57172 97.5053 236.3605 0014300 88.3378 271.9496 15.20922858165454 CubeBel-2 (EU11S) 1 57175U 23091K 26177.73709813 .00013243 00000-0 46633-3 0 9999 2 57175 97.5054 241.0399 0011082 85.6775 274.5731 15.29382643165762 RS-38S 1 57189U 23091Z 26177.72312694 .00016802 00000-0 47596-3 0 9993 2 57189 97.5095 247.4004 0007544 48.1357 312.0529 15.36316531166151 SONATE-2 1 59112U 24043Q 26177.38093513 .00041415 00000-0 52380-3 0 9992 2 59112 97.5531 328.3454 0007328 165.3783 194.7686 15.59385702129325 GRBBeta 1 60237U 24128C 26177.57781919 .00003256 00000-0 22893-3 0 9998 2 60237 61.9878 183.3174 0039451 136.6258 223.7951 15.06690888107681 Curium One 1 60242U 24128H 26177.68971118 .00006849 00000-0 39557-3 0 9994 2 60242 61.9764 172.1150 0038795 132.3567 228.0825 15.12621382107898 ROBUSTA-3A 1 60243U 24128J 26177.32907742 .00005597 00000-0 33331-3 0 9991 2 60243 61.9842 175.9128 0040139 130.0414 230.4214 15.11754630107805 CatSat 1 60246U 24125J 26177.57415220 .00061862 00000-0 76022-3 0 9994 2 60246 97.2083 30.2034 0022346 147.0819 213.1835 15.59778449108852 HYPERVIEW-1G (RS66S) 1 61772U 24199AP 26177.70728368 .00160644 00000-0 91163-3 0 9996 2 61772 97.2856 57.9244 0005971 186.9309 173.1876 15.78556815136173 AO-123 1 61781U 24199AY 26177.61286361 .00007443 00000-0 21554-3 0 9992 2 61781 97.2996 46.1992 0011894 275.3488 84.6399 15.35802996135374 JINJUSat 1B 1 63210U 25052A 26177.67197975 .00017004 00000-0 52202-3 0 9996 2 63210 97.4002 74.4412 0005155 70.7965 289.3835 15.33789504 71559 NUSHSAT 1 1 63211U 25052B 26177.70023781 .00020013 00000-0 56623-3 0 9999 2 63211 97.3978 75.0681 0004920 75.5488 284.6302 15.36331173 71609 TEVEL2-4 1 63213U 25052D 26177.70125990 .00018658 00000-0 55219-3 0 9998 2 63213 97.3900 74.1099 0004870 85.4721 274.7078 15.34932278 71570 TEVEL2-5 1 63214U 25052E 26177.65764458 .00018673 00000-0 55577-3 0 9995 2 63214 97.3899 74.0111 0004829 86.9960 273.1835 15.34752753 71568 TEVEL2-6 1 63215U 25052F 26177.67019081 .00018893 00000-0 56291-3 0 9991 2 63215 97.3903 74.0082 0004687 88.0082 272.1698 15.34718267 71560 TEVEL2-1 1 63217U 25052H 26177.24597688 .00020561 00000-0 62319-3 0 9993 2 63217 97.3872 73.1969 0005001 96.2961 263.8851 15.34157117 71489 TEVEL2-3 1 63218U 25052J 26177.69683875 .00017292 00000-0 52351-3 0 9999 2 63218 97.3879 73.6710 0004870 95.9562 264.2236 15.34230406 71555 TEVEL2-2 1 63219U 25052K 26177.44190834 .00020069 00000-0 60803-3 0 9998 2 63219 97.3873 73.3957 0005013 96.2979 263.8835 15.34174568 71518 TEVEL2-9 1 63237U 25052AD 26177.69258652 .00015944 00000-0 51470-3 0 9994 2 63237 97.3935 73.0013 0008293 105.3749 254.8409 15.32177387 71480 TEVEL2-7 1 63238U 25052AE 26177.67001963 .00015960 00000-0 52010-3 0 9993 2 63238 97.3940 72.8907 0008374 105.7247 254.4918 15.31873185 71471 TEVEL2-8 1 63239U 25052AF 26177.22110573 .00017980 00000-0 58597-3 0 9993 2 63239 97.3937 72.4192 0008385 107.6731 252.5427 15.31844407 71403 SPIRONE 1 66657U 25274H 26177.70131337 .00002205 00000-0 21420-3 0 9999 2 66657 97.7480 106.8566 0011760 351.3411 8.7604 14.93584160 31642 K-HERO 1 66660U 25274L 26177.77023042 .00001859 00000-0 17946-3 0 9995 2 66660 97.7488 107.0928 0013764 353.8612 6.2437 14.93997722 31666 SNUGLITE-III DURI 1 66661U 25274M 26177.55684493 .00002096 00000-0 20148-3 0 9997 2 66661 97.7486 106.9029 0014394 355.2135 4.8945 14.94033198 31635 SAKHACUBE-CHOLBON 1 67290U 25313AU 26177.67480729 .00009811 00000-0 39498-3 0 9999 2 67290 97.3941 252.5915 0007975 329.3513 30.7258 15.25048387 27425 RS95S (QMR-KWT-2) 1 67291U 25313AV 26177.71969906 .00012844 00000-0 49374-3 0 9998 2 67291 97.3928 252.8310 0007430 325.6233 34.4524 15.26525470 27440 Ten-Koh2 1 68261U 25241B 26177.65555196 .00004812 00000-0 20955-3 0 9991 2 68261 51.6684 274.5666 0005311 168.7980 191.3118 15.23997641 16356 JACK-002 1 68417U 26067B 26177.64465179 .00006889 00000-0 32762-3 0 9996 2 68417 97.4566 136.1184 0001007 164.8732 195.2533 15.19501148 13386 DISCO 2 1 68431U 26067R 26177.40426816 .00008707 00000-0 41666-3 0 9995 2 68431 97.4596 135.8694 0001793 28.2367 331.8964 15.19205651 13348 HADES-SA (SpinnyONE) 1 68446U 26067AG 26177.37722377 .00020916 00000-0 98949-3 0 9990 2 68446 97.4405 135.5372 0008717 58.2970 301.9113 15.19360418 13324 PARUS-6U1 1 68456U 26067AS 26177.61746731 .00005917 00000-0 29740-3 0 9995 2 68456 97.4551 135.8361 0006863 47.0255 313.1553 15.17610890 13367 SAL-E 1 68458U 26067AU 26177.67724437 .00007844 00000-0 38997-3 0 9997 2 68458 97.4476 135.8255 0007431 54.8248 305.3681 15.17886826 13377 FSI-SAT 2 1 68792U 26088A 26177.38319421 .00004224 00000-0 28616-3 0 9998 2 68792 97.5067 326.4123 0015745 78.2615 282.0378 15.06901913 9677 OrigamiSat 2 1 68795U 26088D 26177.38044786 .00012923 00000-0 81979-3 0 9996 2 68795 97.5066 326.5732 0015594 51.5285 308.7340 15.08931834 9688 ARICA 2 1 68796U 26088E 26177.38195530 .00004372 00000-0 28351-3 0 9995 2 68796 97.5062 326.5583 0016593 51.0809 309.1896 15.08494325 9686 WASEDA-SAT-ZERO-II 1 68797U 26088F 26177.37628735 .00006778 00000-0 43441-3 0 9992 2 68797 97.5059 326.5645 0016271 50.6889 309.5779 15.08736974 9681 MANGARO-II-Piscus 1 68798U 26088G 26177.36597593 .00004777 00000-0 30603-3 0 9992 2 68798 97.5069 326.5860 0020004 52.8554 307.4498 15.08845436 9683 IO-86 1 40931U 25360.30710720 .00000000 00000-0 12800-3 0 00 2 40931 6.0006 332.5373 0012733 338.8432 8.1437 14.79075515 01 LILIUM-4 1 71922C 26067AC 26089.50133053 -.00014632 00000 0 -74472-3 0 04 2 71922 97.4497 49.1617 0004341 5.9603 355.7042 15.16896692 16